Starlink 32723

operational
NORAD ID: 62449 Int'l Des: 2024-251 Owner: SPXS Country: US Constellation: starlink
LEOCIRCULAR

关于 Starlink 32723

正在加载描述...

实时位置

正在加载3D地球...

即将过境

高度历史

Altitude vs Time

uPlot chart will show altitude changes over time

两行轨道根数

1 62449U 24251T 25258.21441781 .00053083 00000-0 17898-2 0 9993
2 62449 53.1608 70.2739 0001217 97.8600 262.2539 15.30233627 40925
Epoch: Sep 15, 2025 • Age: 15 hours

当前状态

高度 494.0 km
速度 7.62 km/s
星下点 -52.68°S, 24.11°E
发射日期 Dec 29, 2024
运行时间 0.7 years
类型 internet

技术详情

分类 Payload
质量 730.00 kg
干质量 700.00 kg
总质量 730.00 kg
长度 0.30 m
直径 4.10 m
跨度 29.00 m
形状 Box + pan
制造商 SPXS
平台类型 Starlink V2M
阶段状态 In Orbit
所有者/国家 SPXS/US

大型星座

Loading constellations...